Time,TemperatureF,DewpointF,PressureIn,WindDirection,WindDirectionDegrees,WindSpeedMPH,WindSpeedGustMPH,Humidity,HourlyPrecipIn,Conditions,Clouds,dailyrainin,SoftwareType,DateUTC
2013-03-11 00:07:00,21.9,20.1,30.03,NW,318,8.0,15.0,93,0.00,,,0.00,meteohub,2013-03-11 05:07:00,
2013-03-11 00:12:00,21.9,20.1,30.03,NW,306,7.0,15.0,93,0.00,,,0.00,meteohub,2013-03-11 05:12:00,
2013-03-11 00:17:00,21.9,20.1,30.03,NW,317,7.0,14.0,93,0.00,,,0.00,meteohub,2013-03-11 05:17:00,
2013-03-11 00:22:00,21.9,20.1,30.03,WNW,303,5.0,18.0,93,0.00,,,0.00,meteohub,2013-03-11 05:22:00,
2013-03-11 00:32:00,21.9,20.1,30.03,NW,304,7.0,18.0,93,0.00,,,0.00,meteohub,2013-03-11 05:32:00,
2013-03-11 00:37:00,21.9,20.1,30.03,NNW,344,5.0,15.0,93,0.00,,,0.00,meteohub,2013-03-11 05:37:00,
2013-03-11 00:47:00,21.9,20.1,30.03,NW,308,10.0,15.0,93,0.00,,,0.00,meteohub,2013-03-11 05:47:00,
2013-03-11 00:52:00,21.9,20.1,30.03,NW,306,10.0,14.0,93,0.00,,,0.00,meteohub,2013-03-11 05:52:00,
2013-03-11 00:57:00,21.9,20.1,30.03,NW,323,15.0,15.0,93,0.00,,,0.00,meteohub,2013-03-11 05:57:00,
2013-03-11 01:07:00,21.9,20.1,30.02,North,351,8.0,18.0,93,0.00,,,0.00,meteohub,2013-03-11 06:07:00,
2013-03-11 01:12:00,21.9,20.1,30.02,WNW,295,7.0,18.0,93,0.00,,,0.00,meteohub,2013-03-11 06:12:00,
2013-03-11 01:17:00,21.9,20.1,30.02,NNW,332,7.0,18.0,93,0.00,,,0.00,meteohub,2013-03-11 06:17:00,
2013-03-11 01:22:00,21.9,20.1,30.02,WNW,301,8.0,13.0,93,0.00,,,0.00,meteohub,2013-03-11 06:22:00,
2013-03-11 01:27:00,21.9,20.1,30.01,NNW,333,10.0,12.0,93,0.00,,,0.00,meteohub,2013-03-11 06:27:00,
2013-03-11 01:32:00,21.9,20.1,30.01,NW,323,9.0,15.0,93,0.00,,,0.00,meteohub,2013-03-11 06:32:00,
2013-03-11 01:42:00,21.0,19.6,30.02,NW,319,5.0,17.0,93,0.00,,,0.00,meteohub,2013-03-11 06:42:00,
2013-03-11 01:47:00,21.0,19.4,30.02,NW,319,11.0,17.0,93,0.00,,,0.00,meteohub,2013-03-11 06:47:00,
2013-03-11 01:52:00,21.0,19.2,30.02,NNW,333,7.0,21.0,93,0.00,,,0.00,meteohub,2013-03-11 06:52:00,
2013-03-11 02:02:00,21.0,19.2,30.02,NW,310,8.0,19.0,93,0.00,,,0.00,meteohub,2013-03-11 07:02:00,
2013-03-11 02:12:00,21.0,19.2,30.02,WNW,293,12.0,17.0,93,0.00,,,0.00,meteohub,2013-03-11 07:12:00,
2013-03-11 02:17:00,21.0,19.2,30.02,NNW,338,12.0,17.0,93,0.00,,,0.00,meteohub,2013-03-11 07:17:00,
2013-03-11 02:22:00,21.0,19.0,30.02,NW,309,7.0,18.0,93,0.00,,,0.00,meteohub,2013-03-11 07:22:00,
2013-03-11 02:27:00,21.0,19.0,30.02,WNW,302,8.0,18.0,93,0.00,,,0.00,meteohub,2013-03-11 07:27:00,
2013-03-11 02:37:00,21.0,19.0,30.01,NW,315,6.0,13.0,93,0.00,,,0.00,meteohub,2013-03-11 07:37:00,
2013-03-11 02:47:00,19.9,18.5,30.01,NW,305,8.0,15.0,92,0.00,,,0.00,meteohub,2013-03-11 07:47:00,
2013-03-11 02:52:00,19.9,18.5,30.00,NW,307,8.0,15.0,92,0.00,,,0.00,meteohub,2013-03-11 07:52:00,
2013-03-11 03:02:00,19.9,18.3,30.00,NW,309,8.0,14.0,93,0.00,,,0.00,meteohub,2013-03-11 08:02:00,
2013-03-11 03:07:00,19.9,18.3,30.00,WNW,299,8.0,15.0,93,0.00,,,0.00,meteohub,2013-03-11 08:07:00,
2013-03-11 03:12:00,19.9,18.1,30.00,NW,321,6.0,15.0,93,0.00,,,0.00,meteohub,2013-03-11 08:12:00,
2013-03-11 03:22:00,19.9,17.6,30.01,NNW,338,11.0,14.0,92,0.00,,,0.00,meteohub,2013-03-11 08:22:00,
2013-03-11 03:27:00,19.9,17.6,30.01,NW,312,14.0,14.0,92,0.00,,,0.00,meteohub,2013-03-11 08:27:00,
2013-03-11 03:32:00,19.0,17.4,30.01,WNW,294,8.0,14.0,92,0.00,,,0.00,meteohub,2013-03-11 08:32:00,
2013-03-11 03:42:00,19.0,17.2,30.01,NW,304,7.0,16.0,92,0.00,,,0.00,meteohub,2013-03-11 08:42:00,
2013-03-11 03:47:00,19.0,17.1,30.01,NW,310,10.0,16.0,92,0.00,,,0.00,meteohub,2013-03-11 08:47:00,
2013-03-11 03:52:00,19.0,17.1,30.00,NW,315,8.0,17.0,92,0.00,,,0.00,meteohub,2013-03-11 08:52:00,
2013-03-11 03:57:00,19.0,17.1,30.00,NW,321,9.0,17.0,92,0.00,,,0.00,meteohub,2013-03-11 08:57:00,
2013-03-11 04:02:00,19.0,16.9,30.01,NW,307,10.0,16.0,92,0.00,,,0.00,meteohub,2013-03-11 09:02:00,
2013-03-11 04:07:00,19.0,16.9,30.00,WNW,296,14.0,21.0,92,0.00,,,0.00,meteohub,2013-03-11 09:07:00,
2013-03-11 04:12:00,19.0,16.7,30.00,WNW,303,10.0,21.0,92,0.00,,,0.00,meteohub,2013-03-11 09:12:00,
2013-03-11 04:17:00,19.0,16.5,30.00,WNW,302,12.0,18.0,92,0.00,,,0.00,meteohub,2013-03-11 09:17:00,
2013-03-11 04:27:00,19.0,16.3,30.00,NW,318,9.0,21.0,92,0.00,,,0.00,meteohub,2013-03-11 09:27:00,
2013-03-11 04:32:00,19.0,16.2,30.00,NW,315,11.0,21.0,92,0.00,,,0.00,meteohub,2013-03-11 09:32:00,
2013-03-11 04:37:00,18.0,16.2,29.99,NW,317,8.0,21.0,92,0.00,,,0.00,meteohub,2013-03-11 09:37:00,
2013-03-11 04:47:00,18.0,16.0,29.99,NW,304,14.0,17.0,92,0.00,,,0.00,meteohub,2013-03-11 09:47:00,
2013-03-11 04:57:00,18.0,16.0,29.99,NW,315,9.0,15.0,92,0.00,,,0.00,meteohub,2013-03-11 09:57:00,
2013-03-11 05:02:00,18.0,16.0,29.99,WNW,295,10.0,15.0,92,0.00,,,0.00,meteohub,2013-03-11 10:02:00,
2013-03-11 05:07:00,18.0,16.0,29.99,NW,314,8.0,13.0,92,0.00,,,0.00,meteohub,2013-03-11 10:07:00,
2013-03-11 05:12:00,18.0,16.0,29.99,WNW,302,7.0,14.0,92,0.00,,,0.00,meteohub,2013-03-11 10:12:00,
2013-03-11 05:17:00,18.0,15.8,29.99,NW,304,6.0,14.0,92,0.00,,,0.00,meteohub,2013-03-11 10:17:00,
2013-03-11 05:22:00,18.0,15.8,30.00,WNW,283,6.0,13.0,92,0.00,,,0.00,meteohub,2013-03-11 10:22:00,
2013-03-11 05:27:00,18.0,15.6,30.00,NW,306,10.0,14.0,92,0.00,,,0.00,meteohub,2013-03-11 10:27:00,
2013-03-11 05:32:00,18.0,15.6,30.00,NW,323,9.0,14.0,92,0.00,,,0.00,meteohub,2013-03-11 10:32:00,
2013-03-11 05:37:00,18.0,15.4,30.00,NW,304,7.0,13.0,92,0.00,,,0.00,meteohub,2013-03-11 10:37:00,
2013-03-11 05:47:00,18.0,15.1,30.00,NW,323,8.0,16.0,92,0.00,,,0.00,meteohub,2013-03-11 10:47:00,
2013-03-11 05:52:00,17.1,14.9,30.00,NW,312,7.0,17.0,92,0.00,,,0.00,meteohub,2013-03-11 10:52:00,
2013-03-11 06:02:00,17.1,14.7,30.00,NW,308,10.0,16.0,92,0.00,,,0.00,meteohub,2013-03-11 11:02:00,
2013-03-11 06:07:00,17.1,14.7,29.99,NW,305,7.0,15.0,92,0.00,,,0.00,meteohub,2013-03-11 11:07:00,
2013-03-11 06:12:00,17.1,14.5,29.99,NW,311,12.0,15.0,92,0.00,,,0.00,meteohub,2013-03-11 11:12:00,
2013-03-11 06:17:00,17.1,14.5,29.99,NW,304,11.0,15.0,92,0.00,,,0.00,meteohub,2013-03-11 11:17:00,
2013-03-11 06:22:00,17.1,14.7,29.99,NW,309,10.0,15.0,92,0.00,,,0.00,meteohub,2013-03-11 11:22:00,
2013-03-11 06:32:00,17.1,14.4,29.99,NNW,343,7.0,15.0,92,0.00,,,0.00,meteohub,2013-03-11 11:32:00,
2013-03-11 06:37:00,17.1,14.2,29.99,NW,311,9.0,15.0,92,0.00,,,0.00,meteohub,2013-03-11 11:37:00,
2013-03-11 06:42:00,17.1,13.8,29.99,NW,315,5.0,12.0,91,0.00,,,0.00,meteohub,2013-03-11 11:42:00,
2013-03-11 06:52:00,16.0,11.8,30.00,NW,313,4.0,10.0,91,0.00,,,0.00,meteohub,2013-03-11 11:52:00,
2013-03-11 06:57:00,15.1,10.6,30.00,NW,313,4.0,9.0,90,0.00,,,0.00,meteohub,2013-03-11 11:57:00,
2013-03-11 07:02:00,15.1,9.5,30.01,NW,313,1.0,7.0,90,0.00,,,0.00,meteohub,2013-03-11 12:02:00,
2013-03-11 07:07:00,14.0,9.3,30.01,NW,313,2.0,5.0,88,0.00,,,0.00,meteohub,2013-03-11 12:07:00,
2013-03-11 07:17:00,12.9,9.5,30.00,NW,313,3.0,4.0,88,0.00,,,0.00,meteohub,2013-03-11 12:17:00,
2013-03-11 07:22:00,12.0,9.9,30.00,NW,313,3.0,4.0,88,0.00,,,0.00,meteohub,2013-03-11 12:22:00,
2013-03-11 07:27:00,10.9,9.9,30.01,NW,313,3.0,4.0,88,0.00,,,0.00,meteohub,2013-03-11 12:27:00,
2013-03-11 07:32:00,10.9,10.2,30.01,WNW,288,5.0,6.0,88,0.00,,,0.00,meteohub,2013-03-11 12:32:00,
2013-03-11 07:42:00,10.0,11.3,30.01,WNW,291,6.0,9.0,89,0.00,,,0.00,meteohub,2013-03-11 12:42:00,
2013-03-11 07:47:00,10.9,11.7,30.01,WNW,294,6.0,9.0,90,0.00,,,0.00,meteohub,2013-03-11 12:47:00,
2013-03-11 07:52:00,10.9,12.0,30.01,WNW,294,5.0,9.0,91,0.00,,,0.00,meteohub,2013-03-11 12:52:00,
2013-03-11 07:57:00,12.0,12.2,30.02,WNW,292,5.0,9.0,92,0.00,,,0.00,meteohub,2013-03-11 12:57:00,
2013-03-11 08:07:00,12.9,12.7,30.02,WNW,292,8.0,11.0,92,0.00,,,0.00,meteohub,2013-03-11 13:07:00,
2013-03-11 08:17:00,14.0,12.9,30.03,WNW,299,4.0,9.0,92,0.00,,,0.00,meteohub,2013-03-11 13:17:00,
2013-03-11 08:22:00,14.0,13.5,30.03,WNW,294,5.0,9.0,92,0.00,,,0.00,meteohub,2013-03-11 13:22:00,
2013-03-11 08:32:00,15.1,14.2,30.03,NW,315,9.0,10.0,92,0.00,,,0.00,meteohub,2013-03-11 13:32:00,
2013-03-11 08:37:00,16.0,14.4,30.02,WNW,290,4.0,10.0,93,0.00,,,0.00,meteohub,2013-03-11 13:37:00,
2013-03-11 08:42:00,16.0,14.5,30.02,NW,306,5.0,10.0,93,0.00,,,0.00,meteohub,2013-03-11 13:42:00,
2013-03-11 08:47:00,16.0,14.7,30.02,NW,312,5.0,10.0,92,0.00,,,0.00,meteohub,2013-03-11 13:47:00,
2013-03-11 08:52:00,17.1,14.9,30.02,NW,306,5.0,10.0,93,0.00,,,0.00,meteohub,2013-03-11 13:52:00,
2013-03-11 08:57:00,17.1,15.1,30.03,NW,309,4.0,10.0,92,0.00,,,0.00,meteohub,2013-03-11 13:57:00,
2013-03-11 09:02:00,17.1,15.1,30.03,NW,308,4.0,10.0,93,0.00,,,0.00,meteohub,2013-03-11 14:02:00,
2013-03-11 09:07:00,17.1,15.3,30.03,NW,321,6.0,9.0,92,0.00,,,0.00,meteohub,2013-03-11 14:07:00,
2013-03-11 09:17:00,18.0,15.4,30.04,NW,309,8.0,10.0,92,0.00,,,0.00,meteohub,2013-03-11 14:17:00,
2013-03-11 09:22:00,18.0,15.3,30.04,WNW,298,8.0,10.0,93,0.00,,,0.00,meteohub,2013-03-11 14:22:00,
2013-03-11 09:27:00,18.0,15.4,30.04,NW,313,5.0,9.0,92,0.00,,,0.00,meteohub,2013-03-11 14:27:00,
2013-03-11 09:37:00,19.0,15.4,30.04,NW,313,8.0,9.0,92,0.00,,,0.00,meteohub,2013-03-11 14:37:00,
2013-03-11 09:42:00,19.0,15.6,30.04,NW,309,6.0,9.0,92,0.00,,,0.00,meteohub,2013-03-11 14:42:00,
2013-03-11 09:47:00,19.0,15.3,30.03,NW,323,7.0,11.0,92,0.00,,,0.00,meteohub,2013-03-11 14:47:00,
2013-03-11 09:52:00,19.0,15.8,30.03,WNW,300,7.0,11.0,92,0.00,,,0.00,meteohub,2013-03-11 14:52:00,
2013-03-11 09:57:00,19.0,16.3,30.03,NW,322,5.0,11.0,92,0.00,,,0.00,meteohub,2013-03-11 14:57:00,
2013-03-11 10:02:00,19.9,16.3,30.03,NW,324,8.0,9.0,92,0.00,,,0.00,meteohub,2013-03-11 15:02:00,
2013-03-11 10:07:00,19.9,16.5,30.04,WNW,297,6.0,11.0,93,0.00,,,0.00,meteohub,2013-03-11 15:07:00,
2013-03-11 10:12:00,19.9,16.5,30.04,NW,322,7.0,11.0,93,0.00,,,0.00,meteohub,2013-03-11 15:12:00,
2013-03-11 10:17:00,21.0,16.5,30.04,NW,306,5.0,11.0,93,0.00,,,0.00,meteohub,2013-03-11 15:17:00,
2013-03-11 10:27:00,21.0,17.1,30.04,WNW,285,11.0,11.0,93,0.00,,,0.00,meteohub,2013-03-11 15:27:00,
2013-03-11 10:32:00,21.9,17.2,30.04,WNW,296,6.0,12.0,93,0.00,,,0.00,meteohub,2013-03-11 15:32:00,
2013-03-11 10:42:00,21.9,17.2,30.04,NW,313,8.0,15.0,93,0.00,,,0.00,meteohub,2013-03-11 15:42:00,
2013-03-11 10:47:00,21.9,17.2,30.04,NW,316,7.0,15.0,93,0.00,,,0.00,meteohub,2013-03-11 15:47:00,
2013-03-11 10:57:00,23.0,18.1,30.04,WNW,288,6.0,11.0,93,0.00,,,0.00,meteohub,2013-03-11 15:57:00,
2013-03-11 11:02:00,23.0,18.5,30.03,NW,321,5.0,9.0,93,0.00,,,0.00,meteohub,2013-03-11 16:02:00,
2013-03-11 11:07:00,24.1,18.3,30.03,WNW,286,8.0,9.0,93,0.00,,,0.00,meteohub,2013-03-11 16:07:00,
2013-03-11 11:12:00,24.1,18.3,30.03,WNW,298,10.0,12.0,93,0.00,,,0.00,meteohub,2013-03-11 16:12:00,
2013-03-11 11:17:00,24.1,18.3,30.03,WNW,291,6.0,12.0,93,0.00,,,0.00,meteohub,2013-03-11 16:17:00,
2013-03-11 11:22:00,24.1,18.3,30.03,WNW,290,6.0,12.0,93,0.00,,,0.00,meteohub,2013-03-11 16:22:00,
2013-03-11 11:27:00,24.1,18.7,30.03,NW,313,7.0,11.0,93,0.00,,,0.00,meteohub,2013-03-11 16:27:00,
2013-03-11 11:37:00,24.1,19.2,30.02,WNW,298,5.0,8.0,93,0.00,,,0.00,meteohub,2013-03-11 16:37:00,
2013-03-11 11:47:00,25.0,19.6,30.03,WNW,298,6.0,9.0,93,0.01,,,0.01,meteohub,2013-03-11 16:47:00,
2013-03-11 11:57:00,25.0,19.9,30.03,WNW,297,5.0,11.0,93,0.01,,,0.01,meteohub,2013-03-11 16:57:00,
2013-03-11 12:02:00,26.1,20.3,30.03,WNW,288,7.0,11.0,93,0.01,,,0.01,meteohub,2013-03-11 17:02:00,
2013-03-11 12:07:00,26.1,19.9,30.04,WNW,287,12.0,13.0,94,0.01,,,0.01,meteohub,2013-03-11 17:07:00,
2013-03-11 12:12:00,27.0,20.5,30.04,West,271,15.0,15.0,94,0.02,,,0.02,meteohub,2013-03-11 17:12:00,
2013-03-11 12:17:00,27.0,19.8,30.04,West,278,12.0,16.0,94,0.02,,,0.02,meteohub,2013-03-11 17:17:00,
2013-03-11 12:27:00,27.0,20.1,30.03,WNW,288,11.0,16.0,93,0.02,,,0.02,meteohub,2013-03-11 17:27:00,
2013-03-11 12:37:00,27.0,19.6,30.03,WNW,288,11.0,16.0,94,0.02,,,0.02,meteohub,2013-03-11 17:37:00,
2013-03-11 12:42:00,27.0,19.8,30.03,WNW,284,13.0,16.0,94,0.01,,,0.02,meteohub,2013-03-11 17:42:00,
2013-03-11 12:47:00,27.0,19.9,30.02,West,280,6.0,16.0,93,0.02,,,0.03,meteohub,2013-03-11 17:47:00,
2013-03-11 12:57:00,27.0,19.8,30.02,WNW,284,5.0,13.0,94,0.02,,,0.03,meteohub,2013-03-11 17:57:00,
2013-03-11 13:02:00,28.0,19.4,30.03,WNW,288,9.0,11.0,94,0.02,,,0.03,meteohub,2013-03-11 18:02:00,
2013-03-11 13:07:00,27.0,19.6,30.03,WNW,290,9.0,11.0,94,0.01,,,0.03,meteohub,2013-03-11 18:07:00,
2013-03-11 13:12:00,28.0,19.4,30.02,WNW,293,9.0,11.0,94,0.01,,,0.03,meteohub,2013-03-11 18:12:00,
2013-03-11 13:22:00,28.0,20.3,30.01,WNW,299,8.0,11.0,94,0.01,,,0.03,meteohub,2013-03-11 18:22:00,
2013-03-11 13:32:00,28.0,20.3,30.01,West,278,7.0,11.0,94,0.01,,,0.03,meteohub,2013-03-11 18:32:00,
2013-03-11 13:37:00,28.0,20.8,30.01,West,281,7.0,11.0,94,0.01,,,0.03,meteohub,2013-03-11 18:37:00,
2013-03-11 13:47:00,28.9,21.0,30.00,West,274,10.0,10.0,94,0.00,,,0.03,meteohub,2013-03-11 18:47:00,
2013-03-11 13:52:00,28.9,20.8,30.00,WNW,288,10.0,11.0,94,0.01,,,0.04,meteohub,2013-03-11 18:52:00,
2013-03-11 14:02:00,28.9,21.0,29.99,West,265,6.0,11.0,94,0.01,,,0.04,meteohub,2013-03-11 19:02:00,
2013-03-11 14:07:00,28.9,20.8,29.99,WNW,282,7.0,12.0,94,0.02,,,0.04,meteohub,2013-03-11 19:07:00,
2013-03-11 14:17:00,28.9,20.8,29.98,West,280,8.0,12.0,94,0.02,,,0.05,meteohub,2013-03-11 19:17:00,
2013-03-11 14:22:00,28.9,21.0,29.98,West,279,7.0,12.0,94,0.02,,,0.05,meteohub,2013-03-11 19:22:00,
2013-03-11 14:27:00,28.9,21.2,29.99,WNW,287,8.0,11.0,94,0.02,,,0.05,meteohub,2013-03-11 19:27:00,
2013-03-11 14:37:00,30.0,20.7,29.99,West,264,9.0,12.0,94,0.02,,,0.05,meteohub,2013-03-11 19:37:00,
2013-03-11 14:42:00,30.0,20.7,29.99,WNW,284,11.0,13.0,94,0.02,,,0.05,meteohub,2013-03-11 19:42:00,
2013-03-11 14:47:00,30.0,20.7,29.99,West,267,8.0,13.0,94,0.02,,,0.05,meteohub,2013-03-11 19:47:00,
2013-03-11 14:52:00,30.0,19.6,29.99,West,281,9.0,13.0,94,0.01,,,0.05,meteohub,2013-03-11 19:52:00,
2013-03-11 14:57:00,30.0,19.6,29.99,WNW,293,10.0,14.0,94,0.01,,,0.05,meteohub,2013-03-11 19:57:00,
2013-03-11 15:02:00,30.0,19.6,29.99,West,273,9.0,14.0,94,0.01,,,0.05,meteohub,2013-03-11 20:02:00,
2013-03-11 15:07:00,30.0,19.8,29.98,West,279,9.0,12.0,94,0.00,,,0.05,meteohub,2013-03-11 20:07:00,
2013-03-11 15:17:00,30.0,19.8,29.99,West,280,10.0,14.0,94,0.00,,,0.05,meteohub,2013-03-11 20:17:00,
2013-03-11 15:22:00,30.0,19.6,29.98,West,277,9.0,14.0,94,0.00,,,0.05,meteohub,2013-03-11 20:22:00,
2013-03-11 15:27:00,30.0,19.8,29.99,West,268,9.0,14.0,95,0.01,,,0.06,meteohub,2013-03-11 20:27:00,
2013-03-11 15:37:00,30.0,20.5,29.99,West,281,7.0,12.0,94,0.01,,,0.06,meteohub,2013-03-11 20:37:00,
2013-03-11 15:42:00,30.0,19.9,29.99,West,279,5.0,12.0,94,0.01,,,0.06,meteohub,2013-03-11 20:42:00,
2013-03-11 15:47:00,30.9,19.9,29.99,WNW,288,7.0,11.0,95,0.01,,,0.06,meteohub,2013-03-11 20:47:00,
2013-03-11 15:57:00,30.9,20.3,29.97,West,278,6.0,9.0,94,0.01,,,0.06,meteohub,2013-03-11 20:57:00,
2013-03-11 16:07:00,30.9,21.4,29.97,WSW,238,4.0,9.0,93,0.01,,,0.06,meteohub,2013-03-11 21:07:00,
2013-03-11 16:17:00,30.0,21.6,29.97,WSW,248,4.0,6.0,94,0.01,,,0.06,meteohub,2013-03-11 21:17:00,
2013-03-11 16:22:00,30.0,20.8,29.97,WSW,241,4.0,6.0,93,0.00,,,0.06,meteohub,2013-03-11 21:22:00,
2013-03-11 16:32:00,30.0,21.2,29.97,West,262,4.0,8.0,94,0.00,,,0.06,meteohub,2013-03-11 21:32:00,
2013-03-11 16:37:00,30.9,20.7,29.97,West,263,4.0,8.0,94,0.01,,,0.07,meteohub,2013-03-11 21:37:00,
2013-03-11 16:42:00,30.9,21.2,29.97,West,263,3.0,8.0,94,0.01,,,0.07,meteohub,2013-03-11 21:42:00,
2013-03-11 16:47:00,30.9,21.2,29.98,West,264,8.0,8.0,93,0.01,,,0.07,meteohub,2013-03-11 21:47:00,
2013-03-11 16:57:00,30.9,20.7,29.97,West,263,4.0,8.0,93,0.02,,,0.08,meteohub,2013-03-11 21:57:00,
2013-03-11 17:02:00,30.9,21.2,29.97,West,265,5.0,8.0,93,0.02,,,0.08,meteohub,2013-03-11 22:02:00,
2013-03-11 17:12:00,30.9,21.7,29.97,WSW,244,3.0,7.0,91,0.02,,,0.08,meteohub,2013-03-11 22:12:00,
2013-03-11 17:17:00,30.9,21.9,29.97,WSW,244,1.0,7.0,92,0.03,,,0.09,meteohub,2013-03-11 22:17:00,
2013-03-11 17:27:00,30.9,22.3,29.97,WSW,248,5.0,5.0,91,0.03,,,0.09,meteohub,2013-03-11 22:27:00,
2013-03-11 17:37:00,30.9,21.7,29.97,SSW,197,5.0,6.0,89,0.02,,,0.09,meteohub,2013-03-11 22:37:00,
2013-03-11 17:42:00,30.0,21.9,29.97,SSW,197,3.0,6.0,88,0.03,,,0.10,meteohub,2013-03-11 22:42:00,
2013-03-11 17:52:00,30.0,22.3,29.97,South,190,6.0,6.0,87,0.02,,,0.10,meteohub,2013-03-11 22:52:00,
2013-03-11 18:02:00,30.0,22.5,29.97,South,183,6.0,7.0,88,0.02,,,0.10,meteohub,2013-03-11 23:02:00,
2013-03-11 18:12:00,30.0,22.3,29.97,SSW,209,4.0,7.0,88,0.01,,,0.10,meteohub,2013-03-11 23:12:00,
2013-03-11 18:17:00,30.0,22.5,29.98,SSW,199,5.0,7.0,87,0.01,,,0.10,meteohub,2013-03-11 23:17:00,
2013-03-11 18:22:00,28.9,21.9,29.97,SSW,199,5.0,7.0,87,0.01,,,0.10,meteohub,2013-03-11 23:22:00,
2013-03-11 18:27:00,28.9,22.1,29.97,SSW,199,2.0,7.0,87,0.01,,,0.10,meteohub,2013-03-11 23:27:00,
2013-03-11 18:32:00,28.9,21.9,29.98,SSW,199,4.0,7.0,88,0.01,,,0.10,meteohub,2013-03-11 23:32:00,
2013-03-11 18:37:00,28.9,21.9,29.97,SSW,198,1.0,6.0,89,0.01,,,0.10,meteohub,2013-03-11 23:37:00,
2013-03-11 18:47:00,28.9,21.9,29.98,SSW,198,4.0,6.0,89,0.01,,,0.11,meteohub,2013-03-11 23:47:00,
2013-03-11 18:52:00,28.0,21.4,29.99,SSW,200,5.0,6.0,88,0.01,,,0.11,meteohub,2013-03-11 23:52:00,
2013-03-11 18:57:00,27.0,21.0,29.99,SSW,200,7.0,7.0,87,0.01,,,0.11,meteohub,2013-03-11 23:57:00,
2013-03-11 19:02:00,27.0,21.0,29.99,SSW,200,4.0,7.0,88,0.01,,,0.11,meteohub,2013-03-12 00:02:00,
2013-03-11 19:07:00,27.0,21.9,29.99,SSW,200,3.0,7.0,89,0.01,,,0.11,meteohub,2013-03-12 00:07:00,
2013-03-11 19:12:00,27.0,21.6,29.99,SSW,200,1.0,7.0,89,0.01,,,0.11,meteohub,2013-03-12 00:12:00,
2013-03-11 19:22:00,26.1,21.0,30.00,SSW,200,1.0,4.0,91,0.01,,,0.11,meteohub,2013-03-12 00:22:00,
2013-03-11 19:27:00,26.1,20.5,30.01,SSW,200,0.0,3.0,91,0.01,,,0.11,meteohub,2013-03-12 00:27:00,
2013-03-11 19:37:00,25.0,20.5,30.01,SSW,200,0.0,3.0,91,0.00,,,0.11,meteohub,2013-03-12 00:37:00,
2013-03-11 19:42:00,25.0,20.5,30.01,SSW,200,0.0,0.0,91,0.00,,,0.11,meteohub,2013-03-12 00:42:00,
2013-03-11 19:47:00,24.1,20.3,30.01,SSW,200,0.0,1.0,91,0.00,,,0.11,meteohub,2013-03-12 00:47:00,
2013-03-11 19:52:00,24.1,20.5,30.02,SSW,200,1.0,1.0,90,0.00,,,0.11,meteohub,2013-03-12 00:52:00,
2013-03-11 20:02:00,21.9,19.9,30.02,SSW,200,0.0,2.0,91,0.00,,,0.11,meteohub,2013-03-12 01:02:00,
2013-03-11 20:07:00,21.9,20.3,30.02,SSW,200,0.0,2.0,91,0.00,,,0.11,meteohub,2013-03-12 01:07:00,
2013-03-11 20:12:00,21.9,20.1,30.02,SSW,200,0.0,0.0,91,0.00,,,0.11,meteohub,2013-03-12 01:12:00,
2013-03-11 20:17:00,21.0,20.5,30.02,SSW,200,0.0,0.0,91,0.00,,,0.11,meteohub,2013-03-12 01:17:00,
2013-03-11 20:22:00,21.0,20.3,30.02,SSW,200,0.0,1.0,91,0.00,,,0.11,meteohub,2013-03-12 01:22:00,
2013-03-11 20:27:00,21.0,19.6,30.02,SSW,200,2.0,2.0,91,0.00,,,0.11,meteohub,2013-03-12 01:27:00,
2013-03-11 20:32:00,21.0,20.3,30.03,SSW,200,1.0,2.0,91,0.00,,,0.11,meteohub,2013-03-12 01:32:00,
2013-03-11 20:37:00,21.0,19.8,30.03,SSW,200,1.0,3.0,92,0.00,,,0.11,meteohub,2013-03-12 01:37:00,
2013-03-11 20:42:00,19.9,19.8,30.03,SSW,200,2.0,4.0,91,0.00,,,0.11,meteohub,2013-03-12 01:42:00,
2013-03-11 20:47:00,19.9,20.1,30.03,SSW,200,0.0,4.0,92,0.00,,,0.11,meteohub,2013-03-12 01:47:00,
2013-03-11 20:57:00,19.9,19.9,30.04,SSW,200,0.0,4.0,92,0.00,,,0.11,meteohub,2013-03-12 01:57:00,
2013-03-11 21:07:00,19.9,19.2,30.04,SSW,200,0.0,3.0,92,0.00,,,0.11,meteohub,2013-03-12 02:07:00,
2013-03-11 21:17:00,19.9,19.2,30.04,SSW,201,0.0,3.0,92,0.00,,,0.11,meteohub,2013-03-12 02:17:00,
2013-03-11 21:27:00,19.0,19.0,30.03,SSW,200,0.0,3.0,91,0.00,,,0.11,meteohub,2013-03-12 02:27:00,
2013-03-11 21:37:00,18.0,18.9,30.03,SSW,200,0.0,0.0,91,0.00,,,0.11,meteohub,2013-03-12 02:37:00,
2013-03-11 21:42:00,18.0,19.2,30.03,SSW,200,0.0,0.0,91,0.00,,,0.11,meteohub,2013-03-12 02:42:00,
2013-03-11 21:52:00,17.1,19.2,30.05,SSW,200,1.0,1.0,91,0.00,,,0.11,meteohub,2013-03-12 02:52:00,
2013-03-11 21:57:00,17.1,19.0,30.05,SSW,200,0.0,2.0,91,0.00,,,0.11,meteohub,2013-03-12 02:57:00,
2013-03-11 22:02:00,17.1,18.3,30.05,SSW,200,1.0,2.0,91,0.00,,,0.11,meteohub,2013-03-12 03:02:00,
2013-03-11 22:07:00,17.1,18.1,30.05,SSW,200,0.0,2.0,91,0.00,,,0.11,meteohub,2013-03-12 03:07:00,
2013-03-11 22:12:00,17.1,19.4,30.06,SSW,200,1.0,2.0,91,0.00,,,0.11,meteohub,2013-03-12 03:12:00,
2013-03-11 22:17:00,17.1,20.1,30.06,SSW,200,0.0,4.0,91,0.00,,,0.11,meteohub,2013-03-12 03:17:00,
2013-03-11 22:27:00,17.1,18.5,30.07,SSW,200,0.0,4.0,91,0.00,,,0.11,meteohub,2013-03-12 03:27:00,
2013-03-11 22:32:00,16.0,18.1,30.07,SSW,200,1.0,3.0,91,0.00,,,0.11,meteohub,2013-03-12 03:32:00,
2013-03-11 22:42:00,16.0,16.7,30.08,SSW,200,0.0,2.0,90,0.00,,,0.11,meteohub,2013-03-12 03:42:00,
2013-03-11 22:47:00,15.1,16.7,30.08,SSW,200,0.0,2.0,90,0.00,,,0.11,meteohub,2013-03-12 03:47:00,
2013-03-11 22:57:00,15.1,16.9,30.08,SSW,200,0.0,0.0,90,0.00,,,0.11,meteohub,2013-03-12 03:57:00,
2013-03-11 23:02:00,14.0,17.2,30.08,SSW,200,0.0,0.0,90,0.00,,,0.11,meteohub,2013-03-12 04:02:00,
2013-03-11 23:07:00,14.0,17.2,30.09,SSW,200,0.0,0.0,90,0.00,,,0.11,meteohub,2013-03-12 04:07:00,
2013-03-11 23:12:00,14.0,17.1,30.09,SSW,200,0.0,0.0,91,0.00,,,0.11,meteohub,2013-03-12 04:12:00,
2013-03-11 23:17:00,14.0,16.5,30.09,SSW,200,0.0,1.0,91,0.00,,,0.11,meteohub,2013-03-12 04:17:00,
2013-03-11 23:27:00,12.9,16.5,30.09,SSW,200,0.0,1.0,90,0.00,,,0.11,meteohub,2013-03-12 04:27:00,
2013-03-11 23:32:00,12.9,17.8,30.09,SSW,200,0.0,1.0,90,0.00,,,0.11,meteohub,2013-03-12 04:32:00,
2013-03-11 23:37:00,12.9,18.9,30.09,SSW,200,1.0,1.0,90,0.00,,,0.11,meteohub,2013-03-12 04:37:00,
2013-03-11 23:42:00,12.0,19.9,30.09,SSW,200,0.0,2.0,90,0.00,,,0.11,meteohub,2013-03-12 04:42:00,
2013-03-11 23:52:00,12.0,20.8,30.10,SSW,200,1.0,2.0,91,0.00,,,0.11,meteohub,2013-03-12 04:52:00,
2013-03-11 23:57:00,12.0,20.8,30.11,SSW,200,0.0,2.0,90,0.00,,,0.11,meteohub,2013-03-12 04:57:00,